Location: Boleita
(10.4833°N, 66.8167°W)
Time: 04:18:41
(UTC+00:00)

SL-16 R/B - Visible Passes

Search period start: 19 February 2026 00:00
Search period end: 01 March 2026 00:00
Orbit: 985 x 1007 km, 99.8° (Epoch: 18 February)

Date Brightness Start Highest point End Pass type
(mag) Time Alt. Az. Time Alt. Az. Time Alt. Az.
19 Feb 2.8 08:24:58 10° SSE 08:30:57 64° E 08:30:57 64° E visible
19 Feb 4.2 10:14:08 10° WSW 10:14:30 10° W 10:14:50 10° W visible
20 Feb 2.4 08:55:35 10° S 09:01:40 64° WSW 09:02:11 62° WNW visible
21 Feb 4.5 07:44:20 10° SE 07:48:19 23° E 07:48:19 23° E visible
21 Feb 3.2 09:26:59 10° SSW 09:32:18 31° WSW 09:33:25 29° W visible
22 Feb 3.3 08:13:42 10° SSE 08:19:34 48° ENE 08:19:34 48° ENE visible
22 Feb 4.0 09:59:47 10° SW 10:02:58 14° W 10:04:39 13° W visible
23 Feb 2.3 08:43:59 10° SSE 08:50:09 84° WSW 08:50:49 72° NNW visible
24 Feb 4.8 07:33:43 10° ESE 07:37:00 17° E 07:37:00 17° E visible
24 Feb 2.8 09:15:04 10° S 09:20:47 41° WSW 09:22:06 36° WNW visible
25 Feb 3.7 08:02:33 10° SE 08:08:06 36° ENE 08:08:18 36° ENE visible
25 Feb 3.7 09:47:09 10° SW 09:51:26 20° WSW 09:53:24 17° WNW visible
26 Feb 2.6 08:32:31 10° SSE 08:38:39 75° ENE 08:39:36 62° NNE visible
27 Feb 5.1 07:23:37 10° E 07:25:51 13° ENE 07:25:51 13° ENE visible
27 Feb 2.5 09:03:17 10° S 09:09:15 55° WSW 09:10:57 42° NW visible
28 Feb 4.2 07:51:33 10° SE 07:56:38 27° ENE 07:57:14 27° ENE visible
28 Feb 3.4 09:34:54 10° SSW 09:39:54 26° WSW 09:42:20 21° WNW visible
